• Join FlightAware (Why Join?)
  • Login
  • US Flag 
01:17AM EST


 

Airport Tracker/Info


-or-


 

Live Flight TrackerFlight Track Log ✈ RPA3194 ✈ 08-May-2013 ✈ KPHL - KPWM

Flight Track Log - Related Links

Times and Time Zones

All times are in EDT time to prevent confusion due to time zone crossing. See the RPA3194 flight status page for this flight to view local times or setup timezone preferences in your user account.

Time Position Orientation Groundspeed Altitude Reporting Facility
EDT Latitude Longitude Course Direction KTS MPH feet Rate Location/Type
09:41PM 39.8667 -75.2833 90° East 146 168 900  Level Philadelphia TRACON
09:43PM 39.8167 -75.3333 218° Southwest 216 249 3,100 1,985 Climbing Philadelphia TRACON
09:44PM 39.8167 -74.8833 90° East  Level FlightAware Approximate
09:44PM 39.7667 -75.3000 153° Southeast 274 315 5,300  Level Philadelphia TRACON
09:45PM 39.7963 -74.7647 105° East  Level FlightAware Approximate
09:45PM 39.7667 -75.2000 90° East 280 322 8,200  Level Philadelphia TRACON
09:46PM 39.7940 -74.6466 75° East  Level FlightAware Approximate
09:46PM 39.7667 -75.1000 90° East 294 338 10,700  Level Philadelphia TRACON
09:47PM 39.8000 -74.5256 90° East  Level FlightAware Approximate
09:47PM 39.7822 -74.9172 84° East 369 425 12,100  Level New York Center
09:48PM 39.7908 -74.7908 85° East 350 403 13,200 1,750 Climbing New York Center
09:49PM 39.8347 -74.6636 66° East 350 403 15,600 1,983 Climbing New York Center
09:50PM 39.9186 -74.5789 38° Northeast 346 398 17,200 1,339 Climbing New York Center
09:51PM 39.9858 -74.5014 41° Northeast 365 420 18,300 1,294 Climbing New York Center
09:53PM 40.1297 -74.3344 42° Northeast 401 461 20,500 1,421 Climbing Boston Center
09:54PM 40.2167 -74.2336 42° Northeast 406 467 21,900 1,350 Climbing Boston Center
09:55PM 40.3058 -74.1297 42° Northeast 416 479 23,200 1,200 Climbing Boston Center
09:56PM 40.3992 -74.0206 42° Northeast 427 491 24,300 1,100 Climbing Boston Center
09:57PM 40.4942 -73.9164 40° Northeast 432 497 25,400 1,050 Climbing Boston Center
09:58PM 40.5894 -73.8067 41° Northeast 437 503 26,400 1,050 Climbing Boston Center
09:59PM 40.6825 -73.6964 42° Northeast 442 509 27,500 1,050 Climbing Boston Center
10:00PM 40.7692 -73.5856 44° Northeast 458 527 28,500 750 Climbing Boston Center
10:01PM 40.8639 -73.4719 42° Northeast 458 527 29,000 250 Climbing Boston Center
10:02PM 40.9628 -73.3608 40° Northeast 463 533 29,000  Level Boston Center
10:03PM 41.0764 -73.2275 41° Northeast 458 527 29,000  Level Boston Center
10:04PM 41.1689 -73.1047 45° Northeast 463 533 29,000  Level Boston Center
10:05PM 41.2511 -72.9369 57° Northeast 457 526 29,000  Level Boston Center
10:06PM 41.3203 -72.7883 58° Northeast 457 526 29,000  Level Boston Center
10:07PM 41.3833 -72.6419 60° Northeast 457 526 29,000  Level Boston Center
10:08PM 41.4439 -72.4983 61° Northeast 452 520 29,000  Level Boston Center
10:09PM 41.5022 -72.3542 62° Northeast 446 513 29,000  Level Boston Center
10:10PM 41.5667 -72.2125 59° Northeast 441 507 29,000  Level Boston Center
10:11PM 41.6411 -72.0761 54° Northeast 441 507 29,000  Level Boston Center
10:12PM 41.7242 -71.9450 50° Northeast 451 519 29,000  Level Boston Center
10:13PM 41.8211 -71.7911 50° Northeast 451 519 29,000  Level Boston Center
10:14PM 41.9017 -71.6564 51° Northeast 456 525 29,000  Level Boston Center
10:15PM 41.9800 -71.5408 48° Northeast 456 525 29,000  Level Boston Center
10:16PM 42.0603 -71.4083 51° Northeast 451 519 29,000  Level Boston Center
10:17PM 42.1403 -71.2781 50° Northeast 451 519 29,000  Level Boston Center
10:18PM 42.2178 -71.1422 52° Northeast 451 519 29,000 -350 Level Boston Center
10:19PM 42.2997 -71.0086 50° Northeast 456 525 28,300 -1,550 Descending Boston Center
10:20PM 42.3772 -70.8775 51° Northeast 451 519 25,900 -2,150 Descending Boston Center
10:21PM 42.4611 -70.7656 45° Northeast 439 505 24,000 -950 Descending Boston Center
10:22PM 42.5725 -70.7006 23° Northeast 426 490 24,000 -200 Level Boston Center
10:23PM 42.6861 -70.6353 23° Northeast 426 490 23,600 -1,250 Descending Boston Center
10:24PM 42.7750 -70.5817 24° Northeast 431 496 21,500 -2,850 Descending Boston Center
10:25PM 42.9089 -70.4956 25° Northeast 412 474 17,900 -2,900 Descending Boston Center
10:26PM 43.0081 -70.4356 24° Northeast 394 453 15,700 -2,400 Descending Boston Center
10:27PM 43.0961 -70.3586 33° Northeast 372 428 13,100 -2,450 Descending Boston Center
10:28PM 43.1922 -70.3697 355° North 341 392 10,800 -1,900 Descending Boston Center
10:29PM 43.2767 -70.4239 335° Northwest 316 364 9,300 -1,700 Descending Boston Center
10:30PM 43.3442 -70.4672 335° Northwest 306 352 7,400 -1,955 Descending Boston Center
10:31PM 43.4411 -70.5269 336° Northwest 295 339 5,000 -1,591 Descending Boston Center
10:32PM 43.5064 -70.5708 334° Northwest 295 339 3,900 -1,050 Descending Boston Center
10:33PM 43.5858 -70.5914 349° North 276 318 2,900 -750 Descending Boston Center
10:34PM 43.6400 -70.5811 North 232 267 2,400 -550 Descending Boston Center
10:35PM 43.6575 -70.5058 72° East 176 203 1,800 -350 Descending Boston Center
10:36PM 43.6542 -70.4400 94° East 153 176 1,700 -450 Descending Boston Center
10:37PM 43.6511 -70.3828 94° East 140 161 900 -800 Descending Boston Center